Weather in Kaliningrad

Russia / Kaliningrad Oblast     54°42′26″N   20°30′26″E
temp.,
°C
wind,
m/s
gust,
m/s
humid.,
%
clouds,
%
prec.,
mm/h
press.,
hPa
HPBL,
m
7 may, fri
fri723:00+4sw410885 0.0 1004198
02:00+2sw4993100 0.0 1004165
05:00+2sw3792100 0.0 1004134
08:00+6wsw4678100 0.0 1005422
11:00+9wsw4556100 0.0 10051023
14:00+11wnw4549100 0.0 10051438
17:00+8nw555598 0.0 1006988
20:00+4nw338592 0.0 100767
8 may, sat
sat823:00+3w3896100 0.0 1008234
02:00+4nw5883100 0.0 1010700
05:00+1wnw22918 0.0 101224
08:00+6wsw45715 0.0 1013631
11:00+8wsw696966 0.1 10141361
14:00+9w797180 1.1 10151478
17:00+9wnw79695 0.5 10161212
20:00+5wnw36881 0.5 1017147
9 may, sun
sun923:00+2ssw33905 0.0 101827
02:00+2ssw368999 0.0 101994
05:00+2s3486100 0.0 101974
08:00+9s51168100 0.0 1018479
11:00+13s71160100 0.0 1017972
14:00+13s61267100 0.0 1016942
17:00+16ssw61169100 0.0 10161089
20:00+13s41082100 0.0 1016203
10 may, mon
mon1023:00+11sse5138291 0.0 1017318
02:00+10sse5148258 0.0 1017294
05:00+8sse4128899 0.0 1017241
08:00+13sse6147767 0.0 1017413
11:00+17sse812625 0.0 1016718
14:00+20sse8136319 0.0 10161074
17:00+19sse91467100 0.0 10141143
20:00+16sse513821 0.0 1014304
11 may, tue
tue1123:00+15sse61576100 0.0 1016456
02:00+13sse61582100 0.0 1016380
05:00+12se6148890 0.0 1015344
08:00+14se714800 0.0 1015514
11:00+18sse813670 0.0 1014731
14:00+21se813660 0.0 10131048
17:00+21sse813680 0.0 10131083
20:00+17se715730 0.0 1013706